Location: Newark
(34.0131°N, 4.3314°W)
Time: 15:15:28
(UTC+00:00)

Explorer 7 - Visible Passes

Search period start: 16 October 2019 00:00
Search period end: 26 October 2019 00:00
Orbit: 485 x 680 km, 50.3° (Epoch: 15 October)

Date Brightness Start Highest point End Pass type
(mag) Time Alt. Az. Time Alt. Az. Time Alt. Az.
16 Oct 8.5 18:04:13 10° NNW 18:07:12 19° NNE 18:10:18 10° ENE visible
16 Oct 7.5 19:43:52 10° NW 19:47:11 54° WNW 19:47:11 54° WNW visible
17 Oct 8.0 18:08:52 10° NNW 18:12:23 27° NNE 18:16:05 10° E visible
17 Oct 8.0 19:49:00 10° WNW 19:52:30 41° WSW 19:52:30 41° WSW visible
18 Oct 7.3 18:13:37 10° NW 18:17:30 42° NE 18:21:37 10° ESE visible
18 Oct 8.8 19:54:26 10° WNW 19:57:53 24° SW 19:58:02 24° SW visible
19 Oct 6.8 18:18:29 10° NW 18:22:32 73° NE 18:26:52 10° SE visible
19 Oct 9.6 20:00:33 10° W 20:02:44 14° SW 20:03:50 13° SW visible
20 Oct 7.3 18:23:29 10° NW 18:27:31 64° SW 18:31:48 10° SE visible
21 Oct 8.5 18:28:43 10° WNW 18:32:26 35° SW 18:36:22 10° SSE visible
22 Oct 9.5 18:34:19 10° W 18:37:18 20° SW 18:40:24 10° S visible
23 Oct 10.2 18:41:19 10° WSW 18:42:07 10° SW 18:42:55 10° SW visible
